Volver al catálogo

COSMOS 2040

ActivoMilitarPO
NORAD 20234·PAYLOAD·🇷🇺 Russia

Lanzado Sep 14, 1989 desde Plesetsk Cosmodrome

Loading…

Próximos Pases (próximas 24 horas)

TLE

ActualizadoSource: Space-Track

Época: Sep 14, 2026, 14:27 UTC

1 20234U 89074C   26257.60211860  .00000023  00000-0  66172-4 0  9996
2 20234  82.5893 190.3595 0006010 111.3770  62.2401 12.62628606704912

Sigue COSMOS 2040 en tiempo real con AllMySat

Download on the App Store